GW1000 Weather Reports


Display with metric or nautical units.
time (UTC)temp
F
wind
direction
speed
MPH
gust
MPH
rain 1hr
in
rain 24hr
in
rain mn
in
humidity
%
barometer
mb
20260510061741 74 162 2.0 2.0 0.00 0.00 0.00 58 1012.5
20260510061239 73 172 2.0 3.0 0.00 0.00 0.00 60 1012.3
20260510060735 73 274 1.0 3.0 0.00 0.00 0.00 60 1012.2
20260510060232 73 276 2.0 2.0 0.00 0.00 0.00 61 1012.3
20260510055728 73 276 0.0 2.0 0.00 0.00 0.00 60 1012.2
20260510055227 72 277 2.0 2.0 0.00 0.00 0.00 61 1012.2
20260510054727 72 274 2.0 2.0 0.00 0.00 0.00 62 1012.4
20260510054223 70 275 0.0 1.0 0.00 0.00 0.00 64 1012.4
20260510053722 70 278 1.0 2.0 0.00 0.00 0.00 64 1012.4
20260510053219 70 200 1.0 2.0 0.00 0.00 0.00 64 1012.5
20260510052715 69 200 1.0 2.0 0.00 0.00 0.00 66 1012.5
20260510052211 70 136 1.0 2.0 0.00 0.00 0.00 66 1012.2
20260510051707 69 185 2.0 3.0 0.00 0.00 0.00 67 1012.3
20260510051204 69 120 1.0 2.0 0.00 0.00 0.00 67 1012.3
20260510050701 69 72 0.0 3.0 0.00 0.00 0.00 67 1012.2
20260510050158 69 102 0.0 1.0 0.00 0.00 0.00 67 1012.2
20260510045655 69 161 1.0 2.0 0.00 0.00 0.00 67 1012.1
20260510045152 68 65 0.0 0.0 0.00 0.00 0.00 69 1012.0
20260510044648 66 65 0.0 1.0 0.00 0.00 0.00 71 1012.2
20260510044145 65 49 1.0 2.0 0.00 0.00 0.00 73 1012.1
20260510043641 65 85 1.0 2.0 0.00 0.00 0.00 74 1012.2
20260510043137 64 63 0.0 1.0 0.00 0.00 0.00 76 1012.1
20260510042635 63 68 1.0 2.0 0.00 0.00 0.00 77 1012.0
20260510042131 62 67 1.0 2.0 0.00 0.00 0.00 79 1012.0
20260510041628 62 68 0.0 1.0 0.00 0.00 0.00 80 1012.3
20260510041125 60 98 2.0 3.0 0.00 0.00 0.00 81 1012.1
20260510040623 60 81 0.0 3.0 0.00 0.00 0.00 82 1012.5
20260510040119 60 107 3.0 5.0 0.00 0.00 0.00 83 1012.2
20260510035615 59 99 2.0 2.0 0.00 0.00 0.00 84 1012.1
20260510035115 59 125 1.0 2.0 0.00 0.00 0.00 84 1012.2
20260510034612 59 76 0.0 1.0 0.00 0.00 0.00 85 1012.0
20260510034109 59 157 1.0 3.0 0.00 0.00 0.00 85 1012.2
20260510033606 58 113 1.0 1.0 0.00 0.00 0.00 86 1012.2
20260510033103 58 83 0.0 2.0 0.00 0.00 0.00 86 1012.0
20260510032559 58 82 3.0 3.0 0.00 0.00 0.00 86 1012.3
20260510032055 58 47 0.0 0.0 0.00 0.00 0.00 86 1012.3
20260510031550 58 30 0.0 1.0 0.00 0.00 0.00 86 1012.3
20260510031046 58 187 1.0 1.0 0.00 0.00 0.00 86 1012.2
20260510030542 58 150 1.0 3.0 0.00 0.00 0.00 86 1012.2
20260510030039 58 76 2.0 3.0 0.00 0.00 0.00 86 1012.3
20260510025536 58 108 2.0 2.0 0.00 0.00 0.00 86 1012.2
20260510025034 58 72 0.0 1.0 0.00 0.00 0.00 87 1012.4
20260510024530 58 88 1.0 2.0 0.00 0.00 0.00 87 1012.1
20260510024026 58 114 0.0 0.0 0.00 0.00 0.00 87 1012.1
20260510023522 58 124 1.0 1.0 0.00 0.00 0.00 87 1012.2
20260510023021 58 89 1.0 2.0 0.00 0.00 0.00 87 1011.8
20260510022520 58 84 0.0 2.0 0.00 0.00 0.00 87 1012.1
20260510022020 58 101 0.0 1.0 0.00 0.00 0.00 87 1012.0
20260510021517 58 175 2.0 3.0 0.00 0.00 0.00 87 1011.9
20260510021014 58 57 0.0 1.0 0.00 0.00 0.00 87 1012.2
20260510020508 58 359 0.0 1.0 0.00 0.00 0.00 87 1012.2
20260510020004 58 55 0.0 2.0 0.00 0.00 0.00 87 1012.1
20260510015459 58 53 0.0 1.0 0.00 0.00 0.00 87 1012.2
20260510014955 58 52 0.0 0.0 0.00 0.00 0.00 87 1012.1
20260510014453 59 29 0.0 0.0 0.00 0.00 0.00 87 1012.1
20260510013950 59 71 0.0 1.0 0.00 0.00 0.00 87 1012.0
20260510013444 59 30 1.0 2.0 0.00 0.00 0.00 87 1012.2
20260510012940 59 125 2.0 3.0 0.00 0.00 0.00 87 1012.0
20260510012435 59 55 0.0 2.0 0.00 0.00 0.00 87 1012.2
20260510011930 59 73 0.0 1.0 0.00 0.00 0.00 87 1012.0
20260510011425 59 65 1.0 1.0 0.00 0.00 0.00 87 1012.3
20260510010921 59 185 0.0 1.0 0.00 0.00 0.00 87 1012.1
20260510010419 59 108 3.0 3.0 0.00 0.00 0.00 87 1012.0
20260510005916 59 50 1.0 1.0 0.00 0.00 0.00 87 1012.1
20260510005412 59 88 2.0 2.0 0.00 0.00 0.00 87 1011.9
20260510004909 59 71 0.0 1.0 0.00 0.00 0.00 87 1012.0
20260510004407 59 69 0.0 1.0 0.00 0.00 0.00 87 1011.9
20260510003904 60 75 0.0 1.0 0.00 0.00 0.00 87 1011.8
20260510003401 60 163 3.0 3.0 0.00 0.00 0.00 87 1011.9
20260510002900 59 140 1.0 2.0 0.00 0.00 0.00 87 1011.9
20260510002358 59 176 3.0 3.0 0.00 0.00 0.00 88 1012.0
20260510001854 60 61 0.0 1.0 0.00 0.00 0.00 87 1011.9
20260510001352 60 80 0.0 0.0 0.00 0.00 0.00 87 1012.0
20260510000848 60 78 0.0 0.0 0.00 0.00 0.00 87 1012.0
20260510000345 60 68 0.0 0.0 0.00 0.00 0.00 87 1012.1
20260509235842 60 84 0.0 1.0 0.00 0.00 0.00 87 1012.2
20260509235338 60 80 1.0 1.0 0.00 0.00 0.00 87 1012.3
20260509234834 60 88 0.0 1.0 0.00 0.00 0.00 87 1012.3
20260509234331 60 78 1.0 1.0 0.00 0.00 0.00 88 1012.2
20260509233830 60 78 0.0 0.0 0.00 0.00 0.00 88 1012.3
20260509233327 60 51 0.0 0.0 0.00 0.00 0.00 88 1012.0
20260509232822 60 53 0.0 0.0 0.00 0.00 0.00 87 1012.1
20260509232320 60 52 0.0 1.0 0.00 0.00 0.00 88 1012.2
20260509231816 60 62 0.0 0.0 0.00 0.00 0.00 87 1012.3
20260509231313 61 63 0.0 0.0 0.00 0.00 0.00 88 1012.0
20260509230811 61 74 0.0 1.0 0.00 0.00 0.00 88 1012.2
20260509230308 60 58 0.0 0.0 0.00 0.00 0.00 87 1012.4
20260509225802 61 66 0.0 1.0 0.00 0.00 0.00 87 1012.4
20260509225300 61 80 0.0 1.0 0.00 0.00 0.00 87 1012.4
20260509224755 61 51 0.0 0.0 0.00 0.00 0.00 87 1012.2
20260509224252 61 60 0.0 0.0 0.00 0.00 0.00 87 1012.5
20260509223749 61 70 0.0 1.0 0.00 0.00 0.00 87 1012.4
20260509223246 61 57 0.0 1.0 0.00 0.00 0.00 86 1012.3
20260509222743 61 58 0.0 0.0 0.00 0.00 0.00 86 1012.3
20260509222238 62 57 0.0 0.0 0.00 0.00 0.00 86 1012.2
20260509221734 62 59 0.0 0.0 0.00 0.00 0.00 86 1012.6
20260509221231 62 68 0.0 0.0 0.00 0.00 0.00 86 1012.2
20260509220726 62 109 1.0 1.0 0.00 0.00 0.00 86 1012.3
20260509220223 62 50 1.0 1.0 0.00 0.00 0.00 86 1012.4
20260509215719 62 76 0.0 2.0 0.00 0.00 0.00 86 1012.4
20260509215215 62 113 3.0 3.0 0.00 0.00 0.00 86 1012.3
20260509214713 62 133 0.0 0.0 0.00 0.00 0.00 86 1012.3
20260509214210 62 133 0.0 0.0 0.00 0.00 0.00 86 1012.5
20260509213707 62 133 0.0 0.0 0.00 0.00 0.00 86 1012.4
20260509213202 62 133 0.0 1.0 0.00 0.00 0.00 85 1012.5
20260509212700 63 129 0.0 2.0 0.00 0.00 0.00 85 1012.5
20260509212156 62 130 0.0 0.0 0.00 0.00 0.00 85 1012.5
20260509211652 63 130 0.0 0.0 0.00 0.00 0.00 85 1012.7
20260509211149 63 129 1.0 1.0 0.00 0.00 0.00 85 1012.5
20260509210646 63 132 0.0 0.0 0.00 0.00 0.00 85 1012.4
20260509210143 63 139 0.0 0.0 0.00 0.00 0.00 84 1012.5
20260509205638 63 139 0.0 0.0 0.00 0.00 0.00 85 1012.5
20260509205132 63 139 0.0 0.0 0.00 0.00 0.00 84 1012.4
20260509204629 63 139 0.0 0.0 0.00 0.00 0.00 84 1012.6
20260509204125 64 144 0.0 0.0 0.00 0.00 0.00 84 1012.5
20260509203621 64 144 0.0 0.0 0.00 0.00 0.00 84 1012.5
20260509203120 63 202 0.0 0.0 0.00 0.00 0.00 84 1012.5
20260509202619 63 202 0.0 0.0 0.00 0.00 0.00 84 1012.5
20260509202115 63 202 0.0 0.0 0.00 0.00 0.00 83 1012.5
20260509201610 64 202 0.0 0.0 0.00 0.00 0.00 83 1012.6
20260509201109 64 202 0.0 0.0 0.00 0.00 0.00 83 1012.6
20260509200608 64 207 1.0 1.0 0.00 0.00 0.00 83 1012.4
20260509200104 64 253 0.0 0.0 0.00 0.00 0.00 83 1012.6
20260509195600 64 253 0.0 0.0 0.00 0.00 0.00 83 1012.4
20260509195055 64 253 0.0 0.0 0.00 0.00 0.00 82 1012.6
20260509194555 64 253 0.0 1.0 0.00 0.00 0.00 82 1012.4
20260509194053 64 253 0.0 0.0 0.00 0.00 0.00 82 1012.5
20260509193549 65 253 0.0 1.0 0.00 0.00 0.00 82 1012.5
20260509193045 64 253 0.0 0.0 0.00 0.00 0.00 82 1012.6
20260509192542 65 253 0.0 0.0 0.00 0.00 0.00 82 1012.6
20260509192037 65 253 0.0 0.0 0.00 0.00 0.00 82 1012.5
20260509191537 65 253 0.0 0.0 0.00 0.00 0.00 82 1012.5
20260509191033 65 253 0.0 0.0 0.00 0.00 0.00 81 1012.7
20260509190530 66 253 0.0 0.0 0.00 0.00 0.00 81 1012.4
20260509190028 66 254 0.0 0.0 0.00 0.00 0.00 81 1012.4
20260509185525 66 253 0.0 1.0 0.00 0.00 0.00 81 1012.4
20260509185021 66 253 0.0 1.0 0.00 0.00 0.00 81 1012.3
20260509184520 66 252 1.0 1.0 0.00 0.00 0.00 80 1012.4
20260509184016 66 213 1.0 1.0 0.00 0.00 0.00 80 1012.5
20260509183511 66 220 0.0 1.0 0.00 0.00 0.00 80 1012.3
20260509183007 66 229 0.0 1.0 0.00 0.00 0.00 79 1012.4
20260509182503 66 258 1.0 2.0 0.00 0.00 0.00 79 1012.4
20260509181955 67 266 2.0 2.0 0.00 0.00 0.00 79 1012.2
20260509181454 67 339 0.0 1.0 0.00 0.00 0.00 78 1012.2
20260509180950 67 339 0.0 0.0 0.00 0.00 0.00 78 1012.2
20260509180445 67 338 1.0 1.0 0.00 0.00 0.00 77 1012.4
20260509175942 67 339 0.0 0.0 0.00 0.00 0.00 77 1012.2
20260509175439 67 339 0.0 1.0 0.00 0.00 0.00 77 1012.2
20260509174935 67 339 0.0 1.0 0.00 0.00 0.00 77 1012.2
20260509174431 68 339 0.0 0.0 0.00 0.00 0.00 77 1012.1
20260509173927 68 339 0.0 1.0 0.00 0.00 0.00 76 1012.0
20260509173421 68 339 0.0 1.0 0.00 0.00 0.00 76 1012.0
20260509172918 68 312 1.0 2.0 0.00 0.00 0.00 76 1011.6
20260509172415 68 355 1.0 1.0 0.00 0.00 0.00 75 1011.8
20260509171911 68 335 1.0 2.0 0.00 0.00 0.00 75 1011.8
20260509171407 69 334 2.0 5.0 0.00 0.00 0.00 75 1011.8
20260509170903 69 295 2.0 3.0 0.00 0.00 0.00 74 1011.7
20260509170359 69 291 3.0 3.0 0.00 0.00 0.00 73 1011.8
20260509165855 69 309 2.0 3.0 0.00 0.00 0.00 73 1011.6
20260509165349 69 314 2.0 3.0 0.00 0.00 0.00 72 1011.6
20260509164845 70 321 3.0 5.0 0.00 0.00 0.00 71 1011.6
20260509164341 70 358 5.0 7.0 0.00 0.00 0.00 70 1011.5
20260509163837 71 343 4.0 6.0 0.00 0.00 0.00 68 1011.4
20260509163333 71 309 3.0 7.0 0.00 0.00 0.00 68 1011.5
20260509162833 71 340 5.0 9.0 0.00 0.00 0.00 67 1011.6
20260509162331 72 8 2.0 5.0 0.00 0.00 0.00 65 1011.6
20260509161828 72 350 4.0 6.0 0.00 0.00 0.00 65 1011.4
20260509161319 72 346 4.0 8.0 0.00 0.00 0.00 64 1011.2
20260509160815 72 347 5.0 10.0 0.00 0.00 0.00 63 1011.1
20260509160311 73 310 8.0 10.0 0.00 0.00 0.00 63 1011.2
20260509155806 73 343 6.0 11.0 0.00 0.00 0.00 62 1011.0
20260509155306 73 5 5.0 11.0 0.00 0.00 0.00 62 1011.2
20260509154759 73 338 8.0 10.0 0.00 0.00 0.00 61 1011.0
20260509154256 75 18 5.0 9.0 0.00 0.00 0.00 60 1010.9
20260509153753 75 51 4.0 7.0 0.00 0.00 0.00 59 1010.9
20260509153248 75 358 6.0 9.0 0.00 0.00 0.00 59 1011.2
20260509152745 74 338 6.0 10.0 0.00 0.00 0.00 59 1011.1
20260509152242 75 350 9.0 13.0 0.00 0.00 0.00 58 1010.9
20260509151739 75 4 5.0 8.0 0.00 0.00 0.00 58 1010.8
20260509151235 76 2 4.0 9.0 0.00 0.00 0.00 57 1010.7
20260509150734 76 342 7.0 10.0 0.00 0.00 0.00 57 1010.7
20260509150231 76 341 6.0 9.0 0.00 0.00 0.00 56 1010.7
20260509145728 76 312 6.0 11.0 0.00 0.00 0.00 55 1010.7
20260509145223 76 341 6.0 10.0 0.00 0.00 0.00 55 1010.6
20260509144719 78 15 5.0 9.0 0.00 0.00 0.00 53 1010.6
20260509144216 77 356 11.0 16.0 0.00 0.00 0.00 53 1010.6
20260509143714 78 346 5.0 10.0 0.00 0.00 0.00 52 1010.5
20260509143211 78 16 5.0 11.0 0.00 0.00 0.00 51 1010.4
20260509142706 79 270 11.0 15.0 0.00 0.00 0.00 48 1010.5
20260509142203 80 352 8.0 11.0 0.00 0.00 0.00 46 1010.2
20260509141659 80 337 7.0 11.0 0.00 0.00 0.00 44 1010.4
20260509141156 79 8 9.0 17.0 0.00 0.00 0.00 46 1010.4
20260509140652 80 347 8.0 10.0 0.00 0.00 0.00 44 1010.4
20260509140150 81 338 11.0 15.0 0.00 0.00 0.00 42 1010.3
20260509135647 82 7 7.0 10.0 0.00 0.00 0.00 40 1010.3
20260509135145 80 312 11.0 18.0 0.00 0.00 0.00 40 1010.4
20260509134641 81 320 9.0 13.0 0.00 0.00 0.00 41 1010.3
20260509134139 82 343 12.0 17.0 0.00 0.00 0.00 41 1010.4
20260509133636 82 34 7.0 16.0 0.00 0.00 0.00 40 1010.5
20260509133133 82 338 7.0 17.0 0.00 0.00 0.00 40 1010.4
20260509132631 82 77 6.0 11.0 0.00 0.00 0.00 40 1010.3
20260509132130 82 340 14.0 16.0 0.00 0.00 0.00 42 1010.3
20260509131625 81 358 3.0 15.0 0.00 0.00 0.00 42 1010.5
20260509131123 82 237 8.0 9.0 0.00 0.00 0.00 42 1010.7
20260509130618 82 70 11.0 16.0 0.00 0.00 0.00 42 1010.4
20260509130115 80 356 9.0 17.0 0.00 0.00 0.00 45 1010.6
20260509125611 81 325 10.0 18.0 0.00 0.00 0.00 45 1010.5
20260509125108 82 349 7.0 9.0 0.00 0.00 0.00 43 1010.7
20260509124605 82 39 5.0 10.0 0.00 0.00 0.00 42 1010.6
20260509124102 81 309 9.0 16.0 0.00 0.00 0.00 43 1010.6
20260509123600 82 337 12.0 18.0 0.00 0.00 0.00 43 1010.6
20260509123056 81 339 12.0 18.0 0.00 0.00 0.00 44 1010.5
20260509122552 82 0 13.0 17.0 0.00 0.00 0.00 42 1010.4
20260509122050 82 336 10.0 20.0 0.00 0.00 0.00 44 1010.4
20260509121546 83 349 12.0 16.0 0.00 0.00 0.00 42 1010.5
20260509121048 83 5 4.0 10.0 0.00 0.00 0.00 43 1010.6
20260509120542 82 121 9.0 16.0 0.00 0.00 0.00 42 1010.5
20260509120040 82 344 7.0 15.0 0.00 0.00 0.00 44 1010.6
20260509115536 81 9 7.0 9.0 0.00 0.00 0.00 46 1010.5
20260509115034 81 331 8.0 16.0 0.00 0.00 0.00 48 1010.5
20260509114532 81 352 8.0 15.0 0.00 0.00 0.00 48 1010.5
20260509114031 82 350 5.0 13.0 0.00 0.00 0.00 47 1010.6
20260509113529 81 331 9.0 18.0 0.00 0.00 0.00 48 1010.6
20260509113026 82 316 8.0 13.0 0.00 0.00 0.00 48 1010.8
20260509112522 81 157 11.0 18.0 0.00 0.00 0.00 48 1010.6
20260509112019 81 333 7.0 14.0 0.00 0.00 0.00 49 1011.0
20260509111517 81 341 9.0 11.0 0.00 0.00 0.00 49 1010.9
20260509111014 81 307 7.0 9.0 0.00 0.00 0.00 49 1011.1
20260509110510 82 358 5.0 16.0 0.00 0.00 0.00 50 1011.1
20260509110008 80 1 3.0 10.0 0.00 0.00 0.00 53 1010.8
20260509105506 80 339 12.0 13.0 0.00 0.00 0.00 53 1011.0
20260509105003 80 309 8.0 9.0 0.00 0.00 0.00 56 1011.0
20260509104459 79 298 7.0 10.0 0.00 0.00 0.00 59 1011.1
20260509103957 79 345 12.0 14.0 0.00 0.00 0.00 58 1011.3
20260509103455 78 277 7.0 11.0 0.00 0.00 0.00 60 1011.3
20260509102952 78 338 6.0 7.0 0.00 0.00 0.00 61 1011.4
20260509102449 79 299 4.0 5.0 0.00 0.00 0.00 62 1011.3
20260509101946 78 300 7.0 9.0 0.00 0.00 0.00 63 1011.4
20260509101442 79 272 8.0 10.0 0.00 0.00 0.00 62 1011.4
20260509100939 78 320 4.0 13.0 0.00 0.00 0.00 64 1011.4
20260509100437 77 321 11.0 14.0 0.00 0.00 0.00 65 1011.4
20260509095933 78 346 3.0 8.0 0.00 0.00 0.00 64 1011.5
20260509095430 78 270 5.0 8.0 0.00 0.00 0.00 65 1011.4
20260509094927 77 316 10.0 13.0 0.00 0.00 0.00 66 1011.5
20260509094424 77 282 6.0 10.0 0.00 0.00 0.00 66 1011.7
20260509093922 77 322 6.0 11.0 0.00 0.00 0.00 65 1011.7
20260509093419 77 266 10.0 13.0 0.00 0.00 0.00 66 1011.6
20260509092917 78 346 9.0 10.0 0.00 0.00 0.00 64 1011.8
20260509092414 77 276 8.0 10.0 0.00 0.00 0.00 65 1011.8
20260509091913 78 343 10.0 14.0 0.00 0.00 0.00 65 1012.0
20260509091409 77 278 7.0 13.0 0.00 0.00 0.00 65 1012.0
20260509090907 78 297 7.0 14.0 0.00 0.00 0.00 64 1012.0
20260509090404 79 346 8.0 15.0 0.00 0.00 0.00 62 1012.0
20260509085902 79 335 4.0 8.0 0.00 0.00 0.00 53 1012.0
20260509085359 79 61 5.0 7.0 0.00 0.00 0.00 54 1012.0
20260509084855 79 347 8.0 10.0 0.00 0.00 0.00 53 1012.0
20260509084352 78 299 3.0 6.0 0.00 0.00 0.00 54 1012.2
20260509083850 78 65 1.0 2.0 0.00 0.00 0.00 56 1012.2
20260509083346 77 31 5.0 11.0 0.00 0.00 0.00 57 1012.1
20260509082843 77 329 5.0 7.0 0.00 0.00 0.00 58 1012.4
20260509082339 76 307 4.0 8.0 0.00 0.00 0.00 59 1012.3
20260509081837 77 28 2.0 8.0 0.00 0.00 0.00 59 1012.3
20260509081333 76 315 5.0 9.0 0.00 0.00 0.00 61 1012.2
20260509080831 75 312 2.0 11.0 0.00 0.00 0.00 62 1012.4
20260509080329 75 327 6.0 8.0 0.00 0.00 0.00 61 1012.2
20260509075827 76 47 3.0 8.0 0.00 0.00 0.00 61 1012.3
20260509075324 75 276 0.0 6.0 0.00 0.00 0.00 62 1012.3
20260509074821 76 18 1.0 3.0 0.00 0.00 0.00 61 1012.3
20260509074319 75 346 1.0 5.0 0.00 0.00 0.00 63 1012.4
20260509073815 75 315 5.0 8.0 0.00 0.00 0.00 62 1012.3
20260509073311 74 5 2.0 7.0 0.00 0.00 0.00 64 1012.3
20260509072808 75 12 2.0 5.0 0.00 0.00 0.00 64 1012.3
20260509072306 74 351 1.0 2.0 0.00 0.00 0.00 64 1012.5
20260509071801 73 0 1.0 3.0 0.00 0.00 0.00 65 1012.4
20260509071258 74 357 1.0 3.0 0.00 0.00 0.00 64 1012.2
20260509070755 74 105 0.0 2.0 0.00 0.00 0.00 63 1012.3
20260509070251 73 104 1.0 3.0 0.00 0.00 0.00 65 1012.5
20260509065748 72 301 1.0 2.0 0.00 0.00 0.00 67 1012.5
20260509065244 71 340 3.0 6.0 0.00 0.00 0.00 67 1012.5
20260509064741 72 354 2.0 7.0 0.00 0.00 0.00 67 1012.6
20260509064238 73 101 3.0 5.0 0.00 0.00 0.00 67 1012.4
20260509063736 73 347 3.0 3.0 0.00 0.00 0.00 68 1012.5
20260509063232 72 235 1.0 1.0 0.00 0.00 0.00 69 1012.6
20260509062729 71 235 1.0 3.0 0.00 0.00 0.00 70 1012.6
20260509062226 70 214 1.0 2.0 0.00 0.00 0.00 71 1012.6